Вернуться в каталог

SL-16 DEB

АктивенLEO
NORAD 39911·DEBRIS·🇷🇺 Russia

Запущен Mar 26, 1993 с Baikonur Cosmodrome

Loading…

Ближайшие Пролёты (ближайшие 24 часа)

TLE

СвежийSource: Space-Track

Эпоха: Sep 14, 2026, 02:18 UTC

1 39911U 93016CM  26257.09646884  .00000197  00000-0  22314-3 0  9991
2 39911  71.0016 157.2878 0195677  89.3292 273.0225 13.73514651615487

Отслеживайте SL-16 DEB в реальном времени с AllMySat

Download on the App Store